#timestamp,LO_Frequency,Hit 
1501686015.3,286046995.1,N
1501686035.1,286046995.1,N
1501686055.8,286046994.4,N
1501686075.7,286046992.0,P
1501686095.5,286046997.6,N
1501686115.3,286046993.3,N
1501686135.2,286046992.0,P
1501686155.0,286046997.2,N
1501686155.9,286046997.2,N
1501686175.8,286046996.8,N
1501686195.6,286046997.8,N
1501686215.4,286046997.3,N
1501686235.2,286046997.1,N
1501686255.1,286046996.5,N
1501686256.0,286046996.5,N
1501686275.8,286046996.7,N
1501686295.6,286046996.7,N
1501686315.5,286047000.6,N
1501686335.3,286046998.9,N
1501686355.1,286046998.5,N
1501686375.9,286046999.9,N
1501686395.7,286047002.8,N
1501686415.5,286047002.8,N
1501686435.4,286047000.3,N
1501686455.2,286046999.6,N
1501686475.0,286046999.9,N
1501686475.9,286046999.9,N
1501686495.7,286047004.4,N
1501686515.6,286047005.9,N
1501686535.4,286047000.1,N
1501686555.2,286046999.1,N
1501686575.1,286046996.9,N
1501686576.0,286046996.9,N
1501686595.8,286046997.2,N
1501686615.6,286046996.9,N
1501686635.5,286046996.9,N
1501686655.3,286046999.1,N
1501686675.1,286046997.0,N
1501686695.9,286046995.3,N
1501686715.7,286046997.4,N
1501686735.5,286046995.5,N
1501686755.3,286046995.2,N
1501686775.2,286046994.0,N
1501686795.0,286046997.7,N
1501686795.9,286046997.7,N
1501686815.7,286046997.8,N
1501686835.6,286046996.5,N
1501686855.4,286047000.8,N
1501686875.2,286047003.2,N
1501686895.1,286047000.1,N
1501686896.0,286047000.1,N
1501686915.8,286047001.2,N
1501686935.6,286046998.8,N
1501686955.5,286047001.0,N
1501686975.3,286046999.4,N
1501686995.1,286047000.8,N
1501687015.9,286046998.4,N
1501687035.7,286046999.5,N
1501687055.5,286046997.3,N
1501687075.3,286046996.6,N
1501687095.2,286046998.0,N
1501687115.0,286046994.9,N
1501687115.9,286046994.9,N
1501687135.7,286046997.8,N
1501687155.6,286046997.1,N
1501687175.4,286046997.7,N
1501687195.2,286046997.2,N
1501687215.1,286046999.5,N
1501687216.0,286046999.5,N
1501687235.8,286046997.9,N
1501687255.6,286046996.2,N
1501687275.5,286046994.5,N
1501687295.3,286046994.3,N
1501687315.1,286046991.7,P
1501687335.9,286046993.4,N
1501687355.7,286046995.0,N
1501687375.5,286046995.3,N
1501687395.4,286046993.8,N
1501687415.2,286046994.3,N
1501687435.0,286046993.6,P
1501687435.9,286046993.6,P
1501687455.8,286047000.0,N
1501687475.6,286047001.0,N
1501687495.4,286047000.4,N
1501687515.2,286046998.2,N
1501687535.1,286046999.4,N
1501687536.0,286046999.4,N
1501687555.8,286046997.4,N
1501687575.6,286046996.9,N
1501687595.5,286046997.8,N
1501687615.3,286046994.9,N
1501687635.1,286046997.2,N
1501687655.9,286046996.8,N
1501687675.7,286046997.4,N
1501687695.5,286046997.1,N
1501687715.4,286046996.6,N
1501687735.2,286046999.7,N
1501687755.0,286046998.2,N
1501687755.9,286046998.2,N
1501687775.8,286047000.8,N
1501687795.6,286047000.3,N
1501687815.4,286046998.2,N
1501687835.2,286047000.3,N
1501687855.1,286047002.6,N
1501687856.0,286047002.6,N
1501687875.8,286046998.3,N
1501687895.6,286047000.5,N
1501687915.5,286046999.0,N
1501687935.3,286046997.6,N
1501687955.1,286046998.0,N
1501687975.9,286046998.7,N
1501687995.7,286046998.5,N
1501688015.5,286046999.9,N
1501688035.4,286047001.3,N
1501688055.2,286047002.1,N
1501688075.0,286046999.7,N
1501688075.9,286046999.7,N
1501688095.7,286047002.4,N
1501688115.6,286047001.2,N
1501688135.4,286046996.8,N
1501688155.2,286046997.2,N
1501688175.1,286046995.0,N
1501688176.0,286046995.0,N
1501688195.8,286046995.9,N
1501688215.6,286046996.2,N
1501688235.5,286046998.0,N
1501688255.3,286046993.5,P
1501688275.1,286046997.4,N
1501688295.9,286046999.1,N
1501688315.7,286047000.7,N
1501688335.5,286047000.9,N
1501688355.4,286046999.4,N
1501688375.2,286047002.8,N
1501688395.0,286047000.3,N
1501688395.9,286047000.3,N
1501688415.8,286046998.2,N
1501688435.6,286046999.5,N
1501688455.4,286046995.3,N
1501688475.2,286046995.3,N
1501688495.1,286046997.7,N
1501688496.0,286046997.7,N
1501688515.8,286046996.7,N
1501688535.6,286047000.6,N
1501688555.5,286047000.3,N
1501688575.3,286047002.8,N
1501688595.1,286047004.4,N
1501688615.9,286047001.5,N
1501688635.7,286047004.1,N
1501688655.5,286047005.7,N
1501688675.4,286047004.6,N
1501688695.2,286047007.1,N
1501688715.0,286047005.2,N
1501688715.9,286047005.2,N
1501688735.8,286047007.6,N
1501688755.6,286047006.3,N
1501688775.4,286047006.3,N
1501688795.2,286047007.8,N
1501688815.1,286047006.5,N
1501688816.0,286047006.5,N
1501688835.8,286047009.0,N
1501688855.6,286047004.5,N
1501688875.5,286047004.7,N
1501688895.3,286047006.1,N
1501688915.1,286047008.6,N
1501688935.9,286047010.8,N
1501688955.7,286047010.1,N
1501688975.5,286047010.7,N
1501688995.4,286047007.7,N
1501689015.2,286047008.4,N
1501689035.0,286047009.1,N
1501689035.9,286047009.1,N
1501689055.7,286047009.2,N
1501689075.6,286047004.5,N
1501689095.4,286047007.5,N
1501689115.2,286047006.1,N
1501689135.1,286047005.0,N
1501689136.0,286047005.0,N
1501689155.8,286047003.3,N
1501689175.6,286047005.0,N
1501689195.5,286047005.0,N
1501689215.3,286047007.5,P
1501689235.1,286046998.2,P
1501689255.9,286046999.5,N
1501689275.7,286046997.4,N
1501689295.5,286046995.9,N
1501689315.4,286046996.4,N
1501689335.2,286046995.5,N
1501689355.0,286046994.9,N
1501689355.9,286046994.9,N
1501689375.8,286046994.2,N
1501689395.6,286046992.3,N
1501689415.4,286046992.1,N
1501689435.3,286046991.6,N
1501689455.1,286046992.7,N
1501689456.0,286046992.7,N
1501689475.8,286046994.7,N
1501689495.6,286046990.8,N
1501689515.5,286046992.8,N
1501689535.3,286046993.1,N
1501689555.1,286046990.7,N
1501689575.9,286046993.4,N
1501689595.7,286046996.1,N
